Regional Weather Roundup
Issued by NWS

Home | Current Version | Previous Version | Text Only | Print | Product List | Glossary Off
Versions: 1 2 3 4 5 6 7 8 9 10 11 12 13 14 15 16 17 18 19 20 21 22 23 24 25 26 27 28 29 30 31 32 33 34 35 36 37 38 39 40 41 42 43 44 45 46 47 48 49 50

000
ASUS43 KDMX 290507
RWRIA

WEATHER ROUNDUP FOR IOWA
NATIONAL WEATHER SERVICE DES MOINES IA
1200 AM CDT TUE JUL 29 2014

NOTE: "FAIR" INDICATES FEW OR NO CLOUDS BELOW 12,000 FEET WITH NO
SIGNIFICANT WEATHER AND/OR OBSTRUCTIONS TO VISIBILITY.

* - THESE STATIONS ARE NOT NWS STATIONS...THUS NOT UNDER NWS
QUALITY CONTROL.  THEY ALSO DO NOT REPORT WEATHER SUCH
AS PRECIPITATION OR FOG.

IAZ001>003-012>014-020>022-031>034-043>046-290600-
   NORTHWEST IOWA

CITY           SKY/WX    TMP DP  RH WIND       PRES   REMARKS
CARROLL *      CLEAR     57  57 100 CALM      30.19S
CHEROKEE *     PTCLDY    59  59 100 CALM      30.21R
DENISON *      CLEAR     59  59 100 CALM      30.19R
LE MARS *      MOCLDY    59  57  94 CALM      30.22S
ORANGE CITY *  CLEAR     64  55  72 CALM      30.22S
SHELDON *      CLEAR     54  52  94 CALM      30.21S
SIOUX CITY     CLEAR     59  56  89 NW3       30.21R
SPENCER        CLEAR     53  51  93 NW6       30.21S
STORM LAKE *   CLEAR     57  57 100 N6        30.21S
$$

IAZ055>058-069>071-079>083-090>094-290600-
   SOUTHWEST IOWA

CITY           SKY/WX    TMP DP  RH WIND       PRES   REMARKS
ATLANTIC *     CLOUDY    63  59  88 CALM      30.18S
AUDUBON *      CLEAR     59  55  88 CALM      30.20S
CLARINDA *     CLEAR     59  57  94 CALM      30.19F
COUNCIL BLFS *   N/A     63  59  88 N3        30.19R
CRESTON *      CLOUDY    61  59  94 NW3       30.19S
HARLAN  *      CLEAR     59  59 100 N3        30.23S
LAMONI         CLEAR     61  57  87 N7        30.17S
RED OAK *      CLEAR     61  57  88 CALM      30.19S
SHENANDOAH *   CLEAR     59  59 100 CALM      30.19S
$$

IAZ047>049-059>061-072>074-084-290600-
   CENTRAL IOWA

CITY           SKY/WX    TMP DP  RH WIND       PRES   REMARKS
AMES           CLEAR     59  56  89 NW3       30.17R
ANKENY *       CLEAR     59  59 100 CALM      30.16S
CHARITON *     CLEAR     61  57  88 NW5       30.16S
DES MOINES     CLEAR     63  59  87 W5        30.16S
GRINNELL*      CLEAR     59  57  94 W5        30.16S
KNOXVILLE *    CLEAR     61  57  88 NW3       30.15R
MARSHALLTOWN   CLEAR     57  56  96 NW5       30.15S
PELLA *        CLEAR     60  58  96 NW3       30.16S
PERRY *          N/A     59  57  94 NW3       30.18S
$$

IAZ004>006-015-016-023>025-035-036-290600-
   NORTH CENTRAL IOWA

CITY           SKY/WX    TMP DP  RH WIND       PRES   REMARKS
ALGONA *       CLEAR     59  55  88 NW5       30.19S
CLARION *      CLEAR     55  55 100 CALM      30.17S
ESTHERVILLE    CLEAR     56  54  93 NW7       30.20R
FORT DODGE *   CLEAR     57  54  88 NW3       30.19S
MASON CITY     CLEAR     56  53  90 W6        30.18S
FOREST CITY *  CLEAR     55  55 100 CALM      30.17S
IOWA FALLS *     N/A     57  54  88 W5        30.18R
$$

IAZ007>011-017>019-026>030-037>042-050>054-066-290600-
   NORTHEAST IOWA

CITY           SKY/WX    TMP DP  RH WIND       PRES   REMARKS
CEDAR RAPIDS   CLEAR     59  54  83 NW7       30.12F
CHARLES CITY * CLEAR     57  55  94 W5        30.16R
CLINTON *      CLEAR     54  52  94 NW6       30.14S
DECORAH *      CLEAR     57  54  88 CALM      30.13S
DUBUQUE        CLEAR     56  52  86 CALM      30.12S
MONTICELLO *   CLEAR     54  54 100 CALM      30.12S
OELWEIN *      CLEAR     57  55  94 NW3       30.15S
WATERLOO       CLEAR     56  54  93 CALM      30.13S
$$

IAZ064-065-067-068-078-290600-
   EAST CENTRAL IOWA

CITY           SKY/WX    TMP DP  RH WIND       PRES   REMARKS
DAVENPORT      CLEAR     53  51  93 CALM      30.12S
IOWA CITY      CLEAR     61  57  87 SW3       30.14S
MT. PLEASANT * CLEAR     59  57  94 CALM      30.14S
MUSCATINE *    CLEAR     61  57  88 W3        30.12S
QUAD CITIES    CLEAR     57  52  83 CALM      30.11S
$$

IAZ062-063-075>077-085>089-095>099-290600-
   SOUTHEAST IOWA

CITY           SKY/WX    TMP DP  RH WIND       PRES   REMARKS
BURLINGTON     CLEAR     60  57  89 NW5       30.12F
FAIRFIELD *      N/A     59  57  94 W5        30.14S
FORT MADISON * CLEAR     61  59  94 W3        30.14S
KEOKUK *       CLEAR     59  57  94 CALM      30.13S
OSKALOOSA *      N/A     59  57  94 NW6       30.15S
CENTERVILLE *  CLEAR     57  57 100 CALM      30.17S
OTTUMWA        CLEAR     59  57  93 NW5       30.15S
WASHINGTON *   CLEAR     59  57  94 W5        30.14S
$$

ABBREVIATIONS USED IN REMARKS
   TC - TEMPERATURES IN CELSIUS
  WCI - WIND CHILL INDEX
   HX - HEAT INDEX
  VSB - VISIBILITY
$$



USA.gov is the U.S. government's official web portal to all federal, state and local government web resources and services.